Location: Dittelbrunn
(50.0738°N, 10.2196°E)
Time: 13:21:42
(UTC+00:00)

SL-08 RB Rocket - Pass Details

Date: 18 September 2020
Orbit: 646 x 685 km, 97.8° (Epoch: 22 October)

Event Time Altitude Azimuth Distance (km) Brightness Sun altitude
Rises 17:55:08 0° 139° (SE) 3,018 6.6 -5.6°
Reaches altitude 10° 17:57:31 10° 130° (SE) 2,103 5.8 -6.0°
Maximum altitude 18:01:39 34° 66° (ENE) 1,096 4.4 -6.6°
Drops below altitude 10° 18:05:46 10° 2° (N) 2,095 6.4 -7.3°
Sets 18:08:08 0° 354° (N) 3,006 7.3 -7.6°
